AB2TC-1 Weather Reports


time (UTC)temp
C
wind
direction
speed
KPH
gust
KPH
rain 1hr
cm
rain 24hr
cm
rain mn
cm
humidity
%
barometer
mb
20260509174000 13 118 0.0 3.2 0.00 0.00 0.00 74 1007.0
20260509173500 13 158 0.0 3.2 0.00 0.00 0.00 74 1007.0
20260509173001 13 89 0.0 3.2 0.00 0.00 0.00 75 1007.0
20260509172500 13 134 0.0 3.2 0.00 0.00 0.00 75 1007.1
20260509172000 12 202 0.0 3.2 0.00 0.00 0.00 75 1007.2
20260509171459 12 138 0.0 3.2 0.00 0.00 0.00 76 1007.2
20260509171000 12 187 0.0 1.6 0.00 0.00 0.00 76 1007.3
20260509170500 12 328 0.0 6.4 0.00 0.00 0.00 76 1007.3
20260509170001 12 351 0.0 6.4 0.00 0.00 0.00 75 1007.4
20260509165500 12 163 0.0 4.8 0.00 0.00 0.00 75 1007.4
20260509165000 12 293 0.0 3.2 0.00 0.00 0.00 75 1007.4
20260509164500 12 349 0.0 3.2 0.00 0.00 0.00 75 1007.4
20260509164000 12 193 0.0 3.2 0.00 0.00 0.00 75 1007.4
20260509163500 12 314 0.0 3.2 0.00 0.00 0.00 76 1007.5
20260509163001 12 215 0.0 1.6 0.00 0.00 0.00 76 1007.5
20260509162501 12 193 0.0 4.8 0.00 0.00 0.00 76 1007.6
20260509162001 12 289 1.6 4.8 0.00 0.00 0.00 76 1007.8
20260509161500 12 311 0.0 3.2 0.00 0.00 0.00 77 1007.9
20260509161000 11 143 0.0 1.6 0.00 0.00 0.00 77 1007.9
20260509160501 11 323 0.0 1.6 0.00 0.00 0.00 79 1008.0
20260509160001 11 295 0.0 0.0 0.00 0.00 0.00 79 1008.1
20260509155500 11 295 0.0 0.0 0.00 0.00 0.00 80 1008.0
20260509155002 11 295 0.0 0.0 0.00 0.00 0.00 80 1008.2
20260509154501 11 295 0.0 0.0 0.00 0.00 0.00 80 1008.1
20260509154000 11 295 0.0 0.0 0.00 0.00 0.00 81 1008.2
20260509153500 10 295 0.0 0.0 0.00 0.00 0.00 81 1008.1
20260509153000 10 295 0.0 0.0 0.00 0.00 0.00 81 1008.3
20260509152500 10 295 0.0 0.0 0.00 0.00 0.00 80 1008.2
20260509152001 10 319 0.0 0.0 0.00 0.00 0.00 79 1008.3
20260509151500 10 319 0.0 0.0 0.00 0.00 0.00 79 1008.4
20260509150959 10 319 0.0 3.2 0.00 0.00 0.00 78 1008.4
20260509150500 10 64 0.0 3.2 0.00 0.00 0.00 78 1008.4
20260509145003 11 43 0.0 3.2 0.00 0.03 0.00 77 1008.5
20260509144502 11 39 0.0 3.2 0.00 0.03 0.00 79 1008.5
20260509143002 11 37 0.0 1.6 0.00 0.03 0.00 80 1008.6
20260509142502 11 23 1.6 4.8 0.00 0.03 0.00 80 1008.6
20260509142002 11 330 1.6 4.8 0.00 0.03 0.00 80 1008.6
20260509141501 10 314 0.0 4.8 0.00 0.03 0.00 80 1008.6
20260509140501 10 207 0.0 1.6 0.00 0.03 0.00 80 1008.6
20260509140002 10 44 0.0 0.0 0.00 0.03 0.00 80 1008.6
20260509135500 9 44 0.0 3.2 0.00 0.03 0.00 80 1008.7
20260509135000 9 60 0.0 3.2 0.00 0.03 0.00 79 1008.6
20260509134501 8 70 0.0 0.0 0.00 0.03 0.00 78 1008.8
20260509133959 8 68 0.0 0.0 0.00 0.03 0.00 78 1008.9
20260509133000 8 68 0.0 0.0 0.00 0.03 0.00 79 1009.0
20260509131959 7 68 0.0 0.0 0.00 0.03 0.00 79 1009.0
20260509131500 7 65 0.0 0.0 0.00 0.03 0.00 78 1009.1
20260509131000 7 65 0.0 1.6 0.00 0.03 0.00 78 1009.2
20260509130500 7 64 0.0 4.8 0.00 0.03 0.00 78 1009.2
20260509130000 7 50 0.0 4.8 0.00 0.03 0.00 78 1009.1
20260509125002 7 35 0.0 0.0 0.00 0.03 0.00 79 1008.9
20260509124502 7 35 0.0 0.0 0.00 0.03 0.00 79 1008.9
20260509123959 7 62 0.0 0.0 0.00 0.03 0.00 80 1008.8
20260509123501 7 33 0.0 0.0 0.00 0.03 0.00 79 1008.7
20260509123000 7 37 0.0 0.0 0.00 0.03 0.00 79 1008.8
20260509122501 7 260 0.0 0.0 0.00 0.03 0.00 80 1008.8
20260509122002 6 260 0.0 0.0 0.00 0.03 0.00 80 1008.8
20260509121500 6 260 0.0 0.0 0.00 0.03 0.00 79 1009.0
20260509121000 6 260 0.0 0.0 0.00 0.03 0.00 79 1009.0
20260509120501 6 300 0.0 0.0 0.00 0.03 0.00 78 1009.0
20260509120000 6 300 0.0 0.0 0.00 0.03 0.00 78 1009.0
20260509115501 6 117 0.0 0.0 0.00 0.03 0.00 77 1009.1
20260509114501 6 117 0.0 0.0 0.00 0.03 0.00 77 1009.3
20260509114000 6 117 0.0 0.0 0.00 0.03 0.00 77 1009.3
20260509113500 6 117 0.0 0.0 0.00 0.03 0.00 77 1009.3
20260509113000 6 117 0.0 0.0 0.00 0.03 0.00 77 1009.3
20260509112501 6 117 0.0 0.0 0.00 0.03 0.00 76 1009.4
20260509112001 6 117 0.0 0.0 0.00 0.03 0.00 76 1009.3
20260509111459 6 117 0.0 0.0 0.00 0.03 0.00 75 1009.2
20260509111000 6 117 0.0 0.0 0.00 0.03 0.00 76 1009.3
20260509110500 6 117 0.0 0.0 0.00 0.03 0.00 77 1009.3
20260509110001 6 117 0.0 0.0 0.00 0.03 0.00 78 1009.4
20260509105500 6 117 0.0 0.0 0.00 0.03 0.00 77 1009.4
20260509105001 6 117 0.0 0.0 0.00 0.03 0.00 77 1009.3
20260509104000 6 118 0.0 0.0 0.00 0.03 0.00 79 1009.3
20260509103501 5 117 0.0 0.0 0.00 0.03 0.00 78 1009.3
20260509103001 5 118 0.0 0.0 0.00 0.03 0.00 78 1009.3
20260509102000 5 118 0.0 0.0 0.00 0.03 0.00 78 1009.3
20260509101459 5 118 0.0 0.0 0.00 0.03 0.00 77 1009.4
20260509101000 5 118 0.0 0.0 0.00 0.03 0.00 77 1009.3
20260509100459 5 117 0.0 0.0 0.00 0.03 0.00 77 1009.1
20260509100002 5 118 0.0 0.0 0.00 0.03 0.00 77 1009.1
20260509095501 5 118 0.0 0.0 0.00 0.03 0.00 77 1009.1
20260509094501 5 118 0.0 0.0 0.00 0.03 0.00 76 1008.9
20260509093959 5 118 0.0 0.0 0.00 0.03 0.00 76 1008.9
20260509093459 5 118 0.0 0.0 0.00 0.03 0.00 76 1009.0
20260509093001 5 118 0.0 0.0 0.00 0.03 0.00 76 1008.8
20260509092501 5 118 0.0 0.0 0.00 0.03 0.00 76 1008.9
20260509092000 5 118 0.0 0.0 0.00 0.03 0.00 75 1009.0
20260509091500 5 117 0.0 0.0 0.00 0.03 0.00 74 1009.0
20260509090959 5 118 0.0 0.0 0.00 0.03 0.00 74 1009.0
20260509090500 5 118 0.0 0.0 0.00 0.03 0.00 75 1009.1
20260509090001 5 117 0.0 0.0 0.00 0.03 0.00 74 1009.2
20260509085001 5 118 0.0 0.0 0.00 0.05 0.00 73 1009.5
20260509084459 5 117 0.0 0.0 0.00 0.05 0.00 73 1009.6
20260509084002 5 118 0.0 0.0 0.00 0.05 0.00 72 1009.6
20260509083001 5 118 0.0 0.0 0.00 0.05 0.00 70 1009.7
20260509082502 5 118 0.0 0.0 0.00 0.05 0.00 69 1009.6
20260509082000 5 117 0.0 0.0 0.00 0.05 0.00 69 1009.6
20260509081002 5 117 0.0 0.0 0.00 0.05 0.00 69 1009.7
20260509080500 5 117 0.0 0.0 0.00 0.05 0.00 68 1009.7
20260509080003 5 117 0.0 0.0 0.00 0.05 0.00 68 1009.8
20260509075459 5 117 0.0 0.0 0.00 0.10 0.00 69 1009.7
20260509074459 5 117 0.0 0.0 0.00 0.10 0.00 69 1009.9
20260509073502 6 117 0.0 0.0 0.00 0.10 0.00 66 1010.0
20260509073001 6 117 0.0 0.0 0.00 0.10 0.00 65 1010.0
20260509072501 6 117 0.0 0.0 0.00 0.10 0.00 64 1010.0
20260509071959 6 117 0.0 0.0 0.00 0.10 0.00 66 1009.9
20260509071001 6 117 0.0 0.0 0.00 0.10 0.00 63 1009.9
20260509070459 6 117 0.0 0.0 0.00 0.10 0.00 62 1010.0
20260509070001 7 117 0.0 0.0 0.00 0.10 0.00 62 1009.9
20260509065459 7 117 0.0 0.0 0.00 0.28 0.00 61 1009.9
20260509065001 7 117 0.0 0.0 0.00 0.28 0.00 60 1009.9
20260509064501 7 117 0.0 0.0 0.00 0.28 0.00 59 1009.9
20260509063500 7 117 0.0 0.0 0.00 0.28 0.00 59 1010.1
20260509063001 7 143 0.0 0.0 0.00 0.28 0.00 61 1010.2
20260509062500 7 143 0.0 0.0 0.00 0.28 0.00 62 1010.3
20260509062000 7 143 0.0 0.0 0.00 0.28 0.00 59 1010.2
20260509061459 7 150 0.0 0.0 0.00 0.28 0.00 57 1010.2
20260509060959 7 149 0.0 0.0 0.00 0.28 0.00 57 1010.3
20260509060500 7 160 0.0 0.0 0.00 0.28 0.00 59 1010.5
20260509055959 7 155 0.0 0.0 0.00 0.28 0.00 58 1010.5
20260509055459 7 157 0.0 0.0 0.00 0.28 0.00 58 1010.6
20260509054959 7 158 0.0 0.0 0.00 0.28 0.00 58 1010.6
20260509054459 7 147 0.0 0.0 0.00 0.28 0.00 59 1010.8
20260509054000 7 157 0.0 0.0 0.00 0.28 0.00 58 1010.8
20260509053000 7 155 0.0 0.0 0.00 0.28 0.00 58 1011.0
20260509052500 7 185 0.0 0.0 0.00 0.28 0.00 59 1011.0
20260509051959 7 161 0.0 0.0 0.00 0.28 0.00 58 1011.0
20260509050958 7 169 1.6 3.2 0.00 0.28 0.00 59 1011.0
20260509050458 7 170 1.6 3.2 0.00 0.28 0.00 59 1011.0
20260509050002 7 155 1.6 3.2 0.00 0.28 0.00 59 1011.1
20260509045501 7 159 1.6 3.2 0.00 0.28 0.00 59 1011.2
20260509044501 7 156 1.6 3.2 0.00 0.28 0.00 59 1011.2
20260509044002 7 157 1.6 3.2 0.00 0.28 0.00 59 1011.3
20260509043501 7 158 1.6 3.2 0.00 0.28 0.00 60 1011.3
20260509043001 7 164 1.6 3.2 0.00 0.28 0.00 60 1011.2
20260509042502 7 156 1.6 3.2 0.00 0.28 0.00 60 1011.2
20260509042001 7 162 1.6 3.2 0.00 0.28 0.00 60 1011.3
20260509041502 7 154 1.6 3.2 0.00 0.28 0.00 60 1011.3
20260509041001 7 162 1.6 3.2 0.00 0.28 0.00 60 1011.3
20260509040502 7 159 1.6 1.6 0.00 0.28 0.00 62 1011.3
20260509040005 6 162 1.6 3.2 0.00 0.28 0.28 62 1011.3
20260509035001 6 159 1.6 1.6 0.00 0.28 0.28 63 1011.3
20260509034504 6 160 1.6 1.6 0.00 0.28 0.28 63 1011.3
20260509034002 6 160 1.6 1.6 0.00 0.28 0.28 63 1011.3
20260509033502 6 157 1.6 1.6 0.00 0.28 0.28 63 1011.4
20260509033003 6 163 1.6 3.2 0.00 0.28 0.28 62 1011.4
20260509032503 6 161 1.6 3.2 0.00 0.28 0.28 63 1011.4
20260509032001 6 141 1.6 3.2 0.00 0.28 0.28 63 1011.3
20260509031003 6 158 1.6 3.2 0.00 0.28 0.28 62 1011.3
20260509030504 6 153 1.6 3.2 0.00 0.28 0.28 62 1011.4
20260509030004 7 165 1.6 3.2 0.00 0.28 0.28 61 1011.5
20260509025002 7 167 1.6 3.2 0.00 0.28 0.28 61 1011.5
20260509024502 7 165 1.6 3.2 0.00 0.28 0.28 61 1011.6
20260509024002 7 163 1.6 3.2 0.00 0.28 0.28 60 1011.6
20260509023503 7 172 1.6 3.2 0.00 0.28 0.28 61 1011.6
20260509023001 7 171 1.6 3.2 0.00 0.28 0.28 59 1011.6
20260509022001 7 167 0.0 0.0 0.00 0.28 0.28 61 1011.7
20260509021502 7 169 0.0 0.0 0.00 0.28 0.28 60 1011.6
20260509021002 7 170 0.0 0.0 0.00 0.28 0.28 59 1011.6
20260509020501 7 162 0.0 0.0 0.00 0.28 0.28 58 1011.6
20260509015502 7 166 0.0 1.6 0.00 0.28 0.28 60 1011.6
20260509015002 7 191 0.0 1.6 0.00 0.28 0.28 59 1011.6
20260509014502 7 167 0.0 0.0 0.00 0.28 0.28 60 1011.6
20260509014002 7 170 0.0 0.0 0.00 0.28 0.28 60 1011.5
20260509013503 7 168 0.0 0.0 0.00 0.28 0.28 60 1011.4
20260509013002 7 169 0.0 0.0 0.00 0.28 0.28 61 1011.4
20260509012502 7 169 0.0 0.0 0.00 0.28 0.28 62 1011.3
20260509012003 7 168 0.0 0.0 0.00 0.28 0.28 60 1011.3
20260509011502 7 165 0.0 0.0 0.00 0.28 0.28 60 1011.2
20260509011001 7 165 0.0 0.0 0.00 0.28 0.28 62 1011.1
20260509010501 7 165 0.0 0.0 0.00 0.28 0.28 62 1011.0
20260509010003 7 165 0.0 0.0 0.00 0.28 0.28 62 1011.0
20260509005501 7 158 0.0 0.0 0.00 0.28 0.28 62 1010.9
20260509004003 7 155 1.6 1.6 0.00 0.28 0.28 60 1010.9
20260509003001 8 154 0.0 1.6 0.00 0.28 0.28 56 1010.8
20260509002002 8 151 1.6 1.6 0.00 0.28 0.28 53 1010.7
20260509001501 8 143 1.6 1.6 0.00 0.28 0.28 53 1010.7
20260509001001 8 141 1.6 1.6 0.00 0.28 0.28 53 1010.6
20260509000002 9 141 1.6 1.6 0.00 0.28 0.28 52 1010.5
20260508235502 9 141 1.6 1.6 0.00 0.28 0.28 52 1010.5
20260508235002 10 141 1.6 1.6 0.00 0.28 0.28 52 1010.5
20260508234503 10 141 1.6 1.6 0.00 0.28 0.28 51 1010.4
20260508234002 10 141 0.0 1.6 0.00 0.28 0.28 51 1010.3
20260508233503 10 141 1.6 1.6 0.00 0.28 0.28 51 1010.3
20260508233002 11 141 0.0 1.6 0.00 0.28 0.28 49 1010.3
20260508232503 11 140 0.0 0.0 0.00 0.28 0.28 46 1010.3
20260508232002 11 139 0.0 1.6 0.00 0.28 0.28 46 1010.3
20260508231502 11 139 0.0 1.6 0.00 0.28 0.28 45 1010.4
20260508231001 11 140 0.0 1.6 0.00 0.28 0.28 46 1010.3
20260508230501 11 140 0.0 1.6 0.00 0.28 0.28 47 1010.2
20260508230004 11 140 0.0 1.6 0.00 0.28 0.28 46 1010.2
20260508225501 11 140 0.0 1.6 0.00 0.28 0.28 45 1010.3
20260508225002 11 140 0.0 1.6 0.00 0.28 0.28 45 1010.2
20260508224501 11 148 0.0 3.2 0.00 0.28 0.28 45 1010.3
20260508223502 11 312 0.0 1.6 0.00 0.28 0.28 42 1010.4
20260508223003 11 53 0.0 3.2 0.00 0.28 0.28 43 1010.4
20260508222502 11 43 1.6 3.2 0.00 0.28 0.28 43 1010.4
20260508222001 11 48 0.0 3.2 0.00 0.28 0.28 43 1010.4
20260508221502 11 273 1.6 3.2 0.00 0.28 0.28 45 1010.4
20260508220502 11 263 1.6 4.8 0.00 0.28 0.28 41 1010.5
20260508220004 12 241 1.6 3.2 0.00 0.28 0.28 42 1010.7
20260508215501 11 290 1.6 3.2 0.00 0.28 0.28 44 1010.6
20260508214502 11 306 1.6 4.8 0.00 0.28 0.28 48 1010.7
20260508214002 11 55 1.6 4.8 0.00 0.28 0.28 45 1010.6
20260508213502 11 229 1.6 4.8 0.00 0.28 0.28 45 1010.7
20260508213002 11 348 0.0 3.2 0.00 0.28 0.28 46 1010.8
20260508212501 11 246 0.0 3.2 0.00 0.28 0.28 49 1010.8
20260508212002 11 299 0.0 3.2 0.00 0.28 0.28 47 1010.8
20260508211502 11 231 1.6 3.2 0.00 0.28 0.28 47 1010.7
20260508211002 11 281 1.6 3.2 0.00 0.28 0.28 46 1010.8
20260508210501 12 101 1.6 4.8 0.00 0.28 0.28 47 1010.7
20260508210003 11 318 1.6 4.8 0.00 0.28 0.28 46 1010.9
20260508205502 11 212 1.6 8.0 0.00 0.28 0.28 46 1010.9
20260508205003 12 304 1.6 8.0 0.00 0.28 0.28 45 1011.0
20260508204502 12 202 3.2 6.4 0.00 0.28 0.28 43 1011.0
20260508204001 12 288 3.2 6.4 0.00 0.28 0.28 44 1011.0
20260508203502 12 265 3.2 8.0 0.00 0.28 0.28 44 1010.9
20260508202502 12 308 1.6 11.3 0.00 0.28 0.28 46 1010.9
20260508202002 12 325 1.6 11.3 0.00 0.28 0.28 45 1011.0
20260508201002 11 153 3.2 9.7 0.00 0.28 0.28 47 1011.1
20260508200502 11 293 3.2 11.3 0.00 0.28 0.28 44 1011.2
20260508200003 11 287 3.2 9.7 0.00 0.28 0.28 47 1011.2
20260508195502 11 263 3.2 9.7 0.00 0.28 0.28 47 1011.3
20260508195002 11 217 1.6 6.4 0.00 0.28 0.28 49 1011.4
20260508194502 11 250 3.2 9.7 0.00 0.28 0.28 53 1011.4
20260508194002 11 262 3.2 9.7 0.00 0.28 0.28 51 1011.5
20260508193502 11 321 3.2 11.3 0.00 0.28 0.28 48 1011.4
20260508192503 10 177 3.2 6.4 0.00 0.28 0.28 56 1011.4
20260508192002 10 347 3.2 6.4 0.00 0.28 0.28 56 1011.5
20260508191502 10 251 1.6 6.4 0.00 0.28 0.28 54 1011.4
20260508191001 10 287 1.6 8.0 0.00 0.28 0.28 58 1011.4
20260508190501 10 298 1.6 6.4 0.00 0.28 0.28 63 1011.5
20260508190003 9 281 1.6 1054.1 4.24 0.00 0.28 60
20260508185501 10 297 1.6 3.2 0.00 0.28 0.28 58 1011.6
20260508185003 10 249 1.6 6.4 0.00 0.28 0.28 57 1011.7
20260508184501 10 239 1.6 6.4 0.00 0.28 0.28 59 1011.6
20260508184001 9 233 3.2 11.3 0.00 0.28 0.28 63 1011.6
20260508183501 9 18 3.2 11.3 0.00 0.28 0.28 60 1011.7
20260508182502 8 350 1.6 6.4 0.00 0.28 0.28 65 1012.0
20260508182002 8 310 1.6 3.2 0.00 0.28 0.28 65 1012.0
20260508181501 8 285 1.6 4.8 0.00 0.28 0.28 64 1012.0
20260508180501 8 249 1.6 9.7 0.00 0.28 0.28 66 1011.9
20260508180003 8 108 3.2 9.7 0.00 0.28 0.28 65 1012.0
20260508174959 8 283 3.2 6.4 0.00 0.28 0.28 65 1012.0
20260508174500 8 290 1.6 6.4 0.00 0.28 0.28 65 1011.9